Theta_e
304 299 296 298 300 300 299 297 296 299 304 301 301 301 303 306 307 306 309 312 312 313 316 320 321 323 324 328 331 329 334 339 340 337 330 338 345 350 353 350 351 351 352 349
300 297 302 303 301 300 299 296 296 300 302 301 300 299 303 305 306 308 309 309 311 313 313 317 320 322 324 330 329 328 328 334 337 339 335 334 332 334 337 342 350 351 351 352
297 299 303 301 299 297 297 295 295 295 299 301 299 297 299 303 306 307 309 311 312 311 312 315 317 321 323 325 325 330 331 331 331 338 337 340 335 335 334 334 334 354 351 351
299 302 300 299 296 298 293 299 299 297 295 290 300 289 298 301 303 305 307 308 309 310 313 314 316 319 322 323 327 331 333 333 332 334 336 336 335 331 331 332 335 340 353 350
297 299 298 296 297 299 295 300 298 297 295 294 294 291 295 300 299 302 305 307 309 311 311 314 315 318 319 323 324 331 334 331 332 332 334 331 330 333 334 331 332 335 338 354
299 304 301 299 301 300 301 297 297 297 294 287 292 291 292 296 299 303 305 306 308 309 311 313 316 317 319 319 321 327 329 332 333 332 329 332 331 330 329 329 331 332 332 334
298 299 301 302 297 300 298 294 286 285 286 285 294 292 295 301 303 304 304 305 308 310 311 312 313 313 315 317 321 322 325 327 330 331 330 331 330 333 332 332 330 331 330 330
291 290 298 302 298 295 296 294 287 281 283 286 293 288 294 302 305 306 306 307 308 308 310 311 312 314 316 317 321 323 324 326 327 328 330 333 332 329 328 330 333 333 332 334
292 292 302 301 302 300 295 292 298 290 291 287 290 294 299 302 302 303 303 304 305 307 309 310 311 315 315 317 321 322 324 324 326 327 329 332 332 331 328 331 333 331 335 333
297 291 298 300 301 301 297 299 290 290 282 280 287 288 289 297 299 301 301 302 305 308 308 310 312 315 316 318 322 323 322 322 323 326 327 326 329 330 331 332 331 332 333 336
299 296 294 298 295 294 295 293 294 293 291 284 282 286 298 298 301 302 302 304 305 307 308 310 311 314 315 317 316 323 323 322 323 327 326 325 326 325 327 327 327 329 333 336
300 295 290 293 299 300 298 295 295 289 286 289 288 288 301 302 301 304 303 305 306 308 309 309 311 312 314 315 315 317 322 319 319 321 320 322 324 324 323 322 326 329 328 332
299 294 288 290 294 298 294 295 295 294 294 288 285 288 302 302 302 303 304 305 307 309 309 309 310 311 312 314 315 315 317 316 318 318 317 321 323 324 322 321 327 329 328 329
301 294 291 285 289 293 290 291 294 292 286 289 289 291 296 299 299 301 302 305 305 304 309 309 309 310 313 314 314 314 315 317 317 317 318 319 322 322 322 322 322 325 325 325
299 289 292 292 293 293 293 292 293 290 290 287 291 291 295 299 301 303 304 304 304 306 306 309 310 312 313 313 315 316 315 316 319 318 317 319 322 321 319 318 319 321 322 325
299 289 293 290 293 292 290 293 293 293 293 293 294 292 299 302 303 302 303 304 305 307 307 308 310 312 312 314 315 315 316 317 318 316 316 317 317 317 317 317 317 317 321 324
294 291 290 285 291 290 287 292 293 294 295 294 290 296 301 299 302 303 304 305 305 306 307 308 310 313 314 314 314 313 315 316 317 314 314 315 315 315 315 315 315 316 317 322
292 291 292 286 289 279 291 298 297 295 296 297 298 299 300 300 302 304 306 306 306 307 308 309 310 313 314 314 316 315 315 314 313 313 313 313 314 314 314 314 312 315 317 319
297 293 289 284 284 288 291 296 295 294 293 300 299 299 301 301 303 302 306 306 307 309 309 310 311 312 313 313 314 313 312 312 311 310 311 311 311 311 311 310 312 315 315 316
297 298 292 288 282 280 291 296 300 300 289 300 299 298 299 299 293 298 306 307 307 309 310 310 311 312 313 312 313 312 310 309 308 308 309 311 312 311 311 312 312 314 314 314
290 288 285 286 284 289 297 299 302 286 289 300 300 299 299 297 299 303 306 306 307 308 309 311 311 309 311 313 313 310 309 307 308 310 311 310 311 311 312 313 313 313 313 315
290 288 287 288 285 282 297 298 291 297 302 301 300 300 299 301 302 302 304 304 305 306 307 308 307 308 310 311 309 307 305 307 309 310 309 310 310 312 312 312 311 312 314 314
289 292 290 292 292 301 301 300 303 302 299 300 301 302 302 300 300 301 301 302 303 304 304 305 305 306 307 307 307 305 305 307 307 308 308 308 310 310 310 312 312 313 316 316
296 298 292 293 297 297 298 302 302 301 301 301 301 300 299 297 298 298 299 300 300 301 302 303 303 302 302 304 306 305 307 307 307 307 309 309 308 309 311 314 314 315 316 317
294 296 291 292 296 294 297 297 299 300 301 301 300 299 298 296 295 296 297 297 298 299 299 300 300 300 301 303 304 307 307 307 306 307 308 308 309 309 311 312 315 317 319 323
295 291 288 287 292 291 292 295 298 297 298 300 298 297 297 296 294 294 295 296 296 296 297 297 298 299 301 302 305 306 306 307 307 307 310 314 319 315 314 313 312 297 309 305
Wind_Speed
14 12 13 17 17 20 20 21 22 20 18 15 12 14 15 15 22 20 12 7 8 11 10 11 11 8 6 9 8 5 7 1 3 4 3 3 3 5 3 3 7 7 6 12
14 14 14 15 20 13 13 17 20 19 22 17 15 14 15 19 22 18 16 14 13 12 11 10 9 7 5 2 2 7 5 3 3 2 4 1 4 2 2 4 5 8 6 6
14 15 19 10 12 12 17 18 19 22 19 19 16 19 18 20 21 21 17 17 17 18 18 14 14 11 8 6 5 2 6 5 1 3 4 1 4 3 3 4 5 6 10 11
13 14 17 14 11 16 19 16 18 16 17 14 15 16 20 20 25 26 22 15 14 14 16 17 13 10 6 6 7 4 1 1 4 4 1 1 1 2 3 6 5 5 5 12
15 16 10 12 15 19 17 15 17 15 17 14 19 15 16 20 20 16 13 14 12 13 13 15 10 7 6 6 5 4 4 2 3 4 3 3 3 3 3 4 7 6 5 8
20 19 20 13 15 13 11 14 18 16 13 16 22 20 19 19 20 19 17 16 11 10 12 11 10 11 10 9 8 6 6 5 3 2 3 5 6 5 5 4 6 7 6 6
19 22 22 21 18 16 16 14 12 15 15 16 17 19 17 18 8 7 13 9 9 12 10 9 7 8 10 11 9 8 8 8 6 7 6 6 6 6 6 7 6 8 5 7
18 19 19 13 14 16 18 15 9 8 12 14 14 9 8 11 10 11 13 12 11 11 11 9 12 7 3 5 5 8 6 6 6 4 6 5 5 3 4 6 6 5 6 4
18 21 19 7 10 14 17 16 16 10 15 16 18 14 13 16 7 14 11 7 5 4 4 8 6 5 8 7 7 6 6 7 6 7 6 5 5 7 7 8 6 6 8 6
18 19 16 21 3 17 17 15 14 5 6 15 18 17 8 14 18 11 10 10 9 8 7 7 7 6 8 8 6 7 7 8 9 8 5 6 6 7 5 6 7 8 9 10
15 15 17 18 11 17 14 15 18 14 9 11 16 10 4 12 3 9 10 9 11 8 8 11 11 10 7 7 8 4 4 4 5 5 4 4 4 6 7 7 9 10 10 11
13 9 10 23 19 12 18 17 11 14 10 11 13 16 10 4 3 11 9 6 6 12 7 7 8 9 9 9 8 7 5 7 7 7 7 7 6 5 7 10 10 8 11 13
5 5 8 14 17 9 11 15 12 17 13 16 12 12 6 1 7 11 11 10 12 11 11 8 7 9 9 9 9 10 8 8 7 7 7 7 6 5 6 8 12 9 11 13
10 11 15 14 19 5 5 10 17 9 7 17 18 21 17 10 13 7 19 17 10 24 9 10 9 8 8 9 10 11 10 9 10 11 10 8 6 6 7 8 11 13 13 15
4 11 21 17 21 23 25 21 14 11 20 15 22 20 18 11 17 15 11 17 21 36 16 12 10 6 10 10 9 10 11 11 8 9 10 9 7 7 9 11 12 14 16 16
10 6 18 19 20 24 25 24 24 23 27 28 29 25 18 19 20 19 22 16 9 15 15 12 8 9 4 8 10 11 12 12 12 12 14 13 14 12 10 10 13 15 18 16
17 13 13 16 19 16 14 20 22 20 19 18 18 17 20 20 24 16 6 3 7 15 13 13 13 8 8 7 11 14 15 14 12 12 15 15 15 16 13 12 14 16 17 16
15 14 8 11 14 13 6 15 4 12 13 10 12 14 13 12 21 16 13 8 7 6 12 14 13 13 12 14 10 10 11 11 12 14 14 15 15 16 14 12 16 16 15 15
12 11 4 5 9 17 18 12 13 9 14 12 13 14 9 9 21 14 5 17 20 18 15 13 14 15 16 12 10 11 11 11 13 16 17 18 19 18 18 20 21 16 12 14
2 5 5 6 5 6 5 12 18 19 13 15 16 17 16 17 14 13 24 24 21 18 16 16 18 19 20 13 11 8 11 14 17 18 20 18 17 18 18 18 17 13 13 17
3 2 6 9 7 9 9 4 14 8 6 17 17 16 16 12 12 19 20 20 20 20 22 20 19 20 21 9 8 11 14 17 18 19 17 18 18 18 19 19 15 14 16 17
1 3 3 2 4 5 1 11 8 10 13 16 13 15 16 19 20 20 20 19 20 21 20 21 19 15 14 13 12 15 17 16 18 18 17 17 18 15 14 16 16 17 17 17
4 2 5 4 5 12 13 13 9 10 13 17 19 20 21 22 22 23 22 23 22 22 21 20 19 20 17 17 17 18 19 16 17 17 16 19 17 16 16 17 18 15 16 15
9 8 6 9 7 16 16 12 17 18 19 21 17 20 21 23 26 27 24 22 21 21 22 21 23 22 21 18 17 21 19 14 17 20 18 17 19 19 18 15 12 15 13 13
5 11 11 15 11 21 10 21 21 24 24 23 21 24 24 26 27 26 23 22 20 18 18 18 20 19 21 19 19 19 16 15 16 20 21 25 22 25 20 15 11 10 15 15
6 4 4 7 19 14 17 20 26 23 20 22 24 23 24 25 23 24 21 18 18 17 18 18 20 21 20 19 19 19 17 15 16 21 20 18 8 8 13 10 7 7 10 16
Wind_Direction
253 241 243 250 248 250 260 276 287 291 298 263 247 264 277 278 265 243 249 218 202 225 266 162 138 131 148 146 165 163 131 249 222 239 159 151 210 197 197 258 219 219 200 195
235 243 256 264 274 303 304 293 285 281 278 283 280 244 252 259 267 258 222 220 232 220 194 168 148 156 142 192 276 135 118 100 314 359 312 148 152 109 26 324 306 236 234 188
271 278 288 283 302 278 262 265 272 278 277 275 253 265 266 261 264 264 242 205 213 207 188 191 175 166 166 183 188 231 136 148 147 244 305 326 22 18 275 256 250 243 210 222
287 309 287 279 257 266 270 272 279 269 268 270 279 270 260 253 229 230 236 234 212 232 209 191 185 149 188 194 176 185 84 162 149 142 82 338 173 240 215 226 229 262 223 224
267 274 249 261 268 264 268 292 285 295 291 281 263 266 265 268 266 248 210 215 221 211 244 151 137 171 163 180 201 171 177 209 48 15 339 323 281 274 307 341 315 291 284 250
278 282 273 265 274 265 296 297 284 279 265 261 261 258 265 261 263 265 176 193 182 210 154 165 171 176 176 202 198 187 181 213 197 212 231 234 249 279 296 300 305 303 291 294
251 246 243 242 236 252 256 244 260 250 239 248 259 263 246 263 223 202 141 156 176 180 161 169 191 193 205 206 196 179 200 217 191 209 214 229 236 238 231 239 242 265 278 290
276 278 276 211 240 258 252 237 263 290 286 287 325 283 275 347 196 152 147 165 170 185 199 211 191 186 257 263 230 187 195 208 210 236 244 227 244 268 269 278 262 247 251 262
280 280 290 38 227 243 261 249 242 297 295 274 267 241 272 287 223 150 149 159 196 225 216 225 182 211 230 217 215 221 213 221 221 231 228 238 220 228 242 247 259 268 261 263
297 297 290 294 185 261 247 262 274 226 278 278 282 280 283 320 215 177 190 200 181 193 218 258 275 260 240 240 212 206 214 227 221 222 224 239 239 241 269 283 270 273 276 278
280 277 275 275 221 244 245 242 260 284 221 238 262 269 254 332 273 232 189 177 195 198 231 241 240 247 247 237 253 250 228 243 251 232 227 250 263 286 284 260 270 266 266 260
286 304 270 277 289 278 230 267 263 235 239 255 298 282 184 126 306 295 288 190 219 230 242 269 272 261 268 257 249 246 223 225 225 229 233 231 218 235 258 272 267 258 267 269
265 256 286 288 284 337 346 329 322 310 243 241 243 253 196 350 329 309 255 247 238 212 221 235 259 280 268 259 256 256 250 250 258 252 246 236 237 234 255 275 281 257 265 269
344 284 261 273 284 210 214 222 271 283 296 283 263 282 284 148 223 265 279 304 344 306 234 236 246 258 273 272 265 272 265 266 264 260 261 248 230 252 266 268 278 278 266 266
290 278 282 271 278 276 280 273 226 223 246 272 277 263 275 266 221 227 230 255 235 242 245 222 226 268 269 265 281 274 266 266 277 283 278 273 252 237 251 262 270 269 264 263
213 270 272 266 277 284 281 291 271 260 222 234 247 268 279 275 281 250 224 248 325 312 331 313 251 254 335 332 318 310 304 304 303 281 271 268 268 261 251 263 271 270 273 269
288 289 310 288 285 302 276 261 263 283 289 283 277 318 360 348 336 282 288 329 323 308 282 296 330 326 312 306 288 278 280 280 282 286 283 280 276 268 257 261 266 266 268 265
264 272 290 281 298 276 302 291 196 252 294 306 23 347 358 352 310 315 323 310 294 315 326 322 310 301 299 288 281 285 283 287 289 286 286 287 288 285 279 272 269 263 262 266
239 244 259 256 266 282 298 24 356 25 311 29 357 347 359 314 296 282 301 358 331 326 314 300 303 293 276 284 287 290 296 303 293 285 279 278 272 269 267 263 257 248 254 264
312 314 240 264 268 279 57 354 333 329 287 14 343 340 338 337 308 312 341 330 320 315 315 316 302 297 295 286 285 287 287 289 285 285 277 271 269 265 261 254 255 256 256 259
169 190 224 237 252 271 47 292 263 261 321 329 335 328 328 318 303 303 302 302 304 301 303 299 293 283 277 305 313 295 289 284 284 276 266 269 268 264 257 251 241 240 250 251
57 253 228 244 251 261 74 282 353 331 329 322 337 334 322 314 307 299 294 293 288 288 288 284 284 303 310 318 318 298 290 289 281 276 277 274 270 262 263 239 238 240 239 247
44 273 310 294 296 333 3 348 1 339 325 340 332 326 322 312 311 315 314 309 305 310 312 311 312 308 309 309 305 293 285 280 279 280 271 272 266 262 258 249 244 240 242 239
331 30 311 334 359 343 338 353 352 339 344 332 322 318 319 326 322 314 309 305 302 305 306 311 308 302 298 295 291 282 279 288 285 282 275 268 260 250 245 242 241 241 232 233
351 311 338 291 291 342 338 339 332 332 329 315 318 315 318 321 310 307 303 301 296 297 292 288 287 289 289 293 289 286 289 295 294 282 276 268 250 235 232 230 232 234 235 225
33 0 320 294 326 301 304 317 314 310 307 311 318 323 324 310 304 304 301 305 303 293 291 289 289 289 296 296 290 292 290 285 281 278 275 278 275 179 197 197 183 32 196 162